Terminal Aerodrome Forecast
Issued by NWS

Home | Current Version | Previous Version | Text Only | Print | Product List | Glossary On
Versions: 1 2 3 4 5 6 7 8 9 10 11 12 13 14 15 16 17 18
000
FTUS45 KRIW 260500
TAFJAC
TAF
KJAC 260527Z 2606/2706 36012KT P6SM SCT050 BKN080
     FM261200 01006KT P6SM BKN080
     FM261800 VRB04KT P6SM SCT080
     FM270100 36006KT P6SM BKN040
      AMD LTD TO CLD VIS AND WIND=

USA.gov is the U.S. government's official web portal to all federal, state and local government web resources and services.